Regional Weather Roundup
Issued by NWS Sterling, VA

Home | Current Version | Previous Version | Graphics & Text | Print | Product List | Glossary On
Versions: 1 2 3 4 5 6 7 8 9 10 11 12 13 14 15 16 17 18 19 20 21 22 23 24 25 26 27 28 29 30 31 32 33 34 35 36 37 38 39 40 41 42 43 44 45 46 47 48 49 50
000
ASUS41 KLWX 291810
RWRLWX

REGIONAL WEATHER ROUNDUP
NATIONAL WEATHER SERVICE BALTIMORE MD/WASHINGTON DC
200 PM EDT SUN MAR 29 2015

Note: "FAIR" indicates few or no clouds below 12,000 feet
with no significant weather and/or obstructions to visibility.
 TC=TEMPERATURE CELSIUS

 * =Non NWS site. Station does not report precipitation (e.g. rain,
    snow, etc.), thunder, or fog.

DCZ001-MDZ009-015-VAZ040>042-051-053>054-291900-
WASHINGTON METRO

CITY           SKY/WX    TMP DP  RH WIND       PRES   REMARKS
WASHINGTON NAT MOSUNNY   43  10  26 SW7       30.36F
DULLES         MOSUNNY   39   6  25 VRB5      30.34F
ANDREWS AFB    SUNNY     39   8  27 W9        30.33F
FT BELVOIR     SUNNY     41   6  23 VRB2      30.35F
QUANTICO       SUNNY     40  12  32 S7G17     30.37F
COLLEGE PARK*  SUNNY     41   9  26 SW7G16    30.34F
LEESBURG*      SUNNY     41  12  30 N5        30.34F
MANASSAS*      SUNNY     41   7  24 NE5       30.36F
GAITHERSBURG*  SUNNY     37  10  32 W3        30.36F

$$

MDZ006>007-011-014-291900-
BALTIMORE METRO

CITY           SKY/WX    TMP DP  RH WIND       PRES   REMARKS
BWI AIRPORT    MOSUNNY   40   6  24 VRB7      30.32F
MARTIN STATE   SUNNY     43  10  26 W8G16     30.34F
ANNAPOLIS      SUNNY     40   8  26 NW9       30.33F

$$

MDZ012-015-019>023-291900-
MARYLAND EASTERN SHORE

CITY           SKY/WX    TMP DP  RH WIND       PRES   REMARKS
OCEAN CITY     SUNNY     41  12  30 NW8G20    30.31F
SALISBURY      SUNNY     40  11  30 W14G23    30.32F
BAY BRIDGE AP*   N/A     37   9  30 N6        30.34F
CAMBRIDGE*     SUNNY     37   9  30 N10       30.33F

$$

MDZ017>025-291900-
SOUTHERN MARYLAND

CITY           SKY/WX    TMP DP  RH WIND       PRES   REMARKS
PATUXENT RIVER SUNNY     40   4  22 NW10      30.34F
ST INIGOES     SUNNY     39  12  33 W12       30.34F
LEONARDTOWN*   SUNNY     39   7  26 W9G17     30.35F

$$

MDZ003>005-291900-
NORTH CENTRAL MARYLAND

CITY           SKY/WX    TMP DP  RH WIND       PRES   REMARKS
FREDERICK*     SUNNY     43  -4  14 VRB5      30.36
HAGERSTOWN APT SUNNY     40   5  23 W6        30.30F
WESTMINSTER*   SUNNY     37   0  20 W9        30.30S

$$

MDZ501>502-291900-
WESTERN MARYLAND

CITY           SKY/WX    TMP DP  RH WIND       PRES   REMARKS
OAKLAND*       SUNNY     32  12  43 W6        30.19F
CUMBERLAND*    SUNNY     45  10  24 S5        30.32F

$$

VAZ025>031-291900-
SHENANDOAH VALLEY

CITY           SKY/WX    TMP DP  RH WIND       PRES   REMARKS
WINCHESTER*    SUNNY     43  -9  11 NW5       30.30F
FRONT ROYAL*   FAIR      41   3  20 CALM      30.30F
LURAY*         FAIR      45  12  26 SE7       30.30F
NEW MARKET*    FAIR      41   6  23 SE3       30.30F
STAUNTON*      SUNNY     42   4  20 CALM      30.32F
WAYNESBORO*    FAIR      40   4  22 CALM      30.30F

$$

WVZ021-048>050-054>055-291900-
EASTERN WEST VIRGINIA PANHANDLE

CITY           SKY/WX    TMP DP  RH WIND       PRES   REMARKS
MARTINSBURG    SUNNY     43   6  21 VRB5      30.31F
PETERSBURG*    SUNNY     43   2  17 NE6       30.29F

$$

VAZ036>039-050-291900-
CENTRAL FOOTHILLS

CITY           SKY/WX    TMP DP  RH WIND       PRES   REMARKS
CHARLOTTESVILL SUNNY     43   1  17 MISG      30.32F
CULPEPER*      SUNNY     45   1  16 N7        30.34F
ORANGE*        SUNNY     43   5  21 W7        30.36F
GORDONSVILLE*  FAIR      41   3  20 CALM      30.33F
WARRENTON*     FAIR      44  17  33 NW7       30.33F

$$

VAZ055>057-291900-
NORTH AND CENTRAL PIEDMONT

CITY           SKY/WX    TMP DP  RH WIND       PRES   REMARKS
FREDERICKSBRG* SUNNY     43   6  22 W7        30.35F
STAFFORD*      SUNNY     42   3  20 NW6       30.40F

$$

NCZ024-NYZ072-PAZ021-071-VAZ022-071-291900-
OTHER REGIONAL OBSERVATIONS

CITY           SKY/WX    TMP DP  RH WIND       PRES   REMARKS
NEW YORK CITY  SUNNY     40   1  19 VRB3      30.26F
PHILADELPHIA   SUNNY     41   6  23 NW9G16    30.29F
PITTSBURGH     MOSUNNY   38   9  30 SW9       30.26F
ROANOKE        MOSUNNY   45   7  21 VRB6      30.33F
RICHMOND       SUNNY     42   5  21 S5        30.36F
RALEIGH        SUNNY     47   9  21 VRB6      30.39F

$$

ANZ530>537-291900-
MARINE OBSERVATIONS

STATION/POSITION TIME  TEMP    WIND        PRES
                       AIR SEA DIR/SP/G
                 (UTC) (F)     (DEG/KT/KT) (MB)
THOMAS PT LIGHT  1800                        N/A
BALT KEY BRIDGE  1700   35     290/  7/  9 1027.7F
COVE POINT       1700   32      20/  7/ 10 1028.3F
LEWISETTA        1700   35 42              1028.7F
SOLOMONS ISLAND  1700      42                N/A
PINEY POINT      1700          290/ 12/ 14   N/A

$$



USA.gov is the U.S. government's official web portal to all federal, state and local government web resources and services.